Weather History for Willmar, MN

Change the Weather History Date:

Saturday, March 9, 2013

  Actual Average (KLJF) Record (KLJF)
Temperature  
Mean Temperature 38 °F -  
Max Temperature 39 °F 37 °F 49 °F (1977)
Min Temperature 35 °F 17 °F -15 °F (1984)
Degree Days  
Heating Degree Days 27    
Moisture  
Dew Point 32 °F    
Average Humidity 78    
Maximum Humidity 81    
Minimum Humidity 70    
Precipitation  
Precipitation 0.82 in - - ()
Sea Level Pressure  
Sea Level Pressure 29.81 in    
Wind  
Wind Speed 12 mph (East)    
Max Wind Speed 17 mph    
Max Gust Speed 20 mph    
Visibility 3 miles    
Events Rain    
Averages and records for this station are not official NWS values.
T = Trace of Precipitation, MM = Missing Value Source: NWS Daily Summary

Daily Weather History Graph

Daily Weather History Graph

Search for Another Location

Airport:

Trip Planner

Search our weather history database for the weather conditions in past years. The results will help you decide how hot, cold, wet, or windy it might be!

Date:

Astronomy

Mar. 09, 2013 Rise Set
Actual Time 6:43 AM CST 6:19 PM CST
Civil Twilight 6:14 AM CST 6:48 PM CST
Nautical Twilight 5:40 AM CST 7:22 PM CST
Astronomical Twilight 5:05 AM CST 7:57 PM CST
Moon 5:12 AM CST (3/9) 4:18 PM CST (3/9)
Length of Visible Light 12h 34m
Length of Day
11h 35m
Waning Crescent, 5% of the Moon is Illuminated
Mar 9
Waning Crescent
Mar 11
New
Mar 19
First Quarter
Mar 27
Full
Apr 2
Last Quarter

Hourly Weather History & Observations

Time (CST) Temp. Windchill Dew Point Humidity Pressure Visibility Wind Dir Wind Speed Gust Speed Precip Events Conditions
12:15 AM 37.4 °F 28.2 °F 28.4 °F 70% 30.01 in 4.0 mi SE 16.1 mph - 0.04 in   Overcast
12:36 AM 37.4 °F 28.9 °F 28.4 °F 70% 30.00 in 3.0 mi ESE 13.8 mph - 0.06 in   Overcast
12:55 AM 37.4 °F 29.3 °F 28.4 °F 70% 29.99 in 3.0 mi ESE 12.7 mph - 0.07 in   Overcast
1:15 AM 37.4 °F 29.3 °F 30.2 °F 75% 29.98 in 2.5 mi ESE 12.7 mph - 0.02 in   Overcast
1:36 AM 37.4 °F 29.3 °F 30.2 °F 75% 29.97 in 2.5 mi ESE 12.7 mph - 0.04 in   Overcast
1:55 AM 37.4 °F 28.5 °F 30.2 °F 75% 29.96 in 2.5 mi SE 15.0 mph - 0.06 in   Overcast
2:15 AM 37.4 °F 28.9 °F 30.2 °F 75% 29.95 in 2.5 mi ESE 13.8 mph - 0.03 in   Overcast
2:36 AM 37.4 °F 29.3 °F 30.2 °F 75% 29.94 in 2.0 mi SE 12.7 mph - 0.07 in   Overcast
2:55 AM 37.4 °F 29.8 °F 30.2 °F 75% 29.93 in 2.0 mi SE 11.5 mph - 0.11 in   Overcast
3:15 AM 37.4 °F 29.8 °F 30.2 °F 75% 29.92 in 2.5 mi SE 11.5 mph - 0.03 in   Overcast
3:35 AM 37.4 °F 29.3 °F 30.2 °F 75% 29.91 in 3.0 mi SE 12.7 mph - 0.06 in   Overcast
3:55 AM 37.4 °F 28.9 °F 30.2 °F 75% 29.90 in 2.5 mi SE 13.8 mph - 0.08 in   Overcast
4:15 AM 37.4 °F 29.8 °F 30.2 °F 75% 29.89 in 2.5 mi ESE 11.5 mph - 0.03 in   Overcast
4:35 AM 37.4 °F 29.3 °F 30.2 °F 75% 29.88 in 2.5 mi SE 12.7 mph - 0.06 in   Overcast
4:55 AM 37.4 °F 28.9 °F 30.2 °F 75% 29.87 in 2.5 mi SE 13.8 mph - 0.10 in   Overcast
5:15 AM 37.4 °F 29.3 °F 30.2 °F 75% 29.88 in 2.5 mi SE 12.7 mph - 0.02 in   Overcast
5:35 AM 37.4 °F 28.9 °F 32.0 °F 81% 29.88 in 2.5 mi SE 13.8 mph - 0.02 in   Overcast
5:56 AM 37.4 °F 28.5 °F 32.0 °F 81% 29.87 in 3.0 mi SE 15.0 mph - N/A   Overcast
6:15 AM 37.4 °F 28.9 °F 32.0 °F 81% 29.86 in 2.5 mi SE 13.8 mph - N/A   Overcast
6:35 AM 37.4 °F 29.3 °F 32.0 °F 81% 29.85 in 2.0 mi SE 12.7 mph - N/A   Overcast
6:56 AM 37.4 °F 28.9 °F 32.0 °F 81% 29.83 in 1.5 mi SE 13.8 mph - N/A   Overcast
7:15 AM 37.4 °F 28.9 °F 32.0 °F 81% 29.83 in 1.8 mi SE 13.8 mph - N/A   Haze
7:35 AM 37.4 °F 28.5 °F 32.0 °F 81% 29.83 in 1.5 mi SE 15.0 mph - N/A   Haze
7:56 AM 37.4 °F 29.3 °F 32.0 °F 81% 29.82 in 1.5 mi SE 12.7 mph - N/A   Haze
8:15 AM 37.4 °F 29.3 °F 32.0 °F 81% 29.81 in 1.5 mi SE 12.7 mph - N/A   Haze
8:35 AM 37.4 °F 30.3 °F 32.0 °F 81% 29.80 in 1.2 mi SE 10.4 mph - N/A   Haze
8:56 AM 37.4 °F 30.3 °F 32.0 °F 81% 29.79 in 1.2 mi SE 10.4 mph - N/A   Haze
9:15 AM 37.4 °F 29.8 °F 32.0 °F 81% 29.79 in 1.2 mi SE 11.5 mph - N/A   Haze
9:35 AM 37.4 °F 29.8 °F 32.0 °F 81% 29.79 in 1.0 mi SE 11.5 mph - N/A   Haze
9:56 AM 37.4 °F 29.8 °F 32.0 °F 81% 29.78 in 1.0 mi SE 11.5 mph - N/A Rain Rain
10:15 AM 37.4 °F 30.8 °F 32.0 °F 81% 29.78 in 0.8 mi SE 9.2 mph - 0.01 in   Overcast
10:35 AM 37.4 °F 30.8 °F 32.0 °F 81% 29.77 in 1.0 mi SE 9.2 mph - 0.02 in Rain Light Rain
10:56 AM 37.4 °F 30.8 °F 32.0 °F 81% 29.76 in 1.0 mi ESE 9.2 mph - 0.01 in Rain Light Rain
11:15 AM 37.4 °F 31.4 °F 32.0 °F 81% 29.75 in 1.2 mi ESE 8.1 mph - 0.04 in Rain Light Rain
11:35 AM 37.4 °F 31.4 °F 32.0 °F 81% 29.76 in 1.8 mi SE 8.1 mph - 0.06 in Rain Light Rain
11:55 AM 37.4 °F 32.1 °F 32.0 °F 81% 29.75 in 1.2 mi ESE 6.9 mph - 0.10 in Rain Rain
12:16 PM 37.4 °F 32.1 °F 32.0 °F 81% 29.74 in 1.5 mi ESE 6.9 mph - 0.05 in Rain Light Rain
12:35 PM 39.2 °F 34.2 °F 32.0 °F 75% 29.74 in 2.0 mi ESE 6.9 mph - 0.05 in Rain Light Rain
12:55 PM 39.2 °F 34.2 °F 32.0 °F 75% 29.73 in 1.5 mi ESE 6.9 mph - 0.08 in Rain Rain
1:16 PM 39.2 °F 34.2 °F 32.0 °F 75% 29.72 in 1.5 mi ESE 6.9 mph - 0.06 in Rain Rain
1:35 PM 39.2 °F 35.0 °F 32.0 °F 75% 29.70 in 1.5 mi East 5.8 mph - 0.08 in Rain Rain
1:55 PM 39.2 °F 34.2 °F 33.8 °F 81% 29.69 in 3.0 mi East 6.9 mph - 0.10 in Rain Light Rain
2:16 PM 39.2 °F 34.2 °F 33.8 °F 81% 29.69 in 2.5 mi ESE 6.9 mph - N/A   Haze
2:35 PM 39.2 °F 34.2 °F 32.0 °F 75% 29.69 in 1.2 mi ESE 6.9 mph - 0.03 in Rain Rain
2:55 PM 39.2 °F 34.2 °F 32.0 °F 75% 29.69 in 1.5 mi ESE 6.9 mph - 0.05 in Rain Rain
3:16 PM 39.2 °F 35.9 °F 33.8 °F 81% 29.68 in 2.5 mi ENE 4.6 mph - 0.03 in Rain Light Rain
3:35 PM 39.2 °F 37.0 °F 32.0 °F 75% 29.69 in 4.0 mi ENE 3.5 mph - 0.03 in   Haze
3:55 PM 39.2 °F - 32.0 °F 75% 29.70 in 4.0 mi Calm Calm - 0.03 in   Haze
4:16 PM 39.2 °F 35.0 °F 32.0 °F 75% 29.69 in 3.0 mi NNE 5.8 mph - N/A   Haze
4:35 PM 39.2 °F 37.0 °F 32.0 °F 75% 29.70 in 3.0 mi NNE 3.5 mph - N/A   Haze
4:55 PM 39.2 °F 35.9 °F 32.0 °F 75% 29.71 in 3.0 mi North 4.6 mph - N/A   Haze
5:15 PM 37.4 °F 32.8 °F 32.0 °F 81% 29.72 in 2.0 mi NNW 5.8 mph - N/A   Haze
5:35 PM 37.4 °F 32.1 °F 32.0 °F 81% 29.72 in 1.0 mi North 6.9 mph - N/A   Overcast
5:55 PM 37.4 °F 32.1 °F 32.0 °F 81% 29.73 in 1.2 mi NNW 6.9 mph - N/A   Overcast
6:15 PM 37.4 °F 30.8 °F 32.0 °F 81% 29.73 in 1.5 mi NNW 9.2 mph - N/A   Overcast
6:35 PM 37.4 °F 30.3 °F 32.0 °F 81% 29.74 in 3.0 mi NNW 10.4 mph - N/A   Haze
6:55 PM 37.4 °F 30.3 °F 32.0 °F 81% 29.74 in 4.0 mi NNW 10.4 mph - N/A   Haze
7:15 PM 37.4 °F 29.3 °F 32.0 °F 81% 29.75 in 5.0 mi NNW 12.7 mph - N/A   Haze
7:35 PM 37.4 °F 29.3 °F 32.0 °F 81% 29.76 in 5.0 mi NNW 12.7 mph - N/A   Overcast
7:55 PM 37.4 °F 28.5 °F 32.0 °F 81% 29.76 in 10.0 mi NNW 15.0 mph - N/A   Overcast
8:15 PM 37.4 °F 28.5 °F 32.0 °F 81% 29.76 in 5.0 mi NNW 15.0 mph 18.4 mph N/A   Overcast
8:35 PM 37.4 °F 28.9 °F 32.0 °F 81% 29.77 in 10.0 mi NNW 13.8 mph - N/A   Overcast
8:55 PM 37.4 °F 29.3 °F 32.0 °F 81% 29.80 in 10.0 mi NNW 12.7 mph - N/A   Overcast
9:15 PM 37.4 °F 29.3 °F 32.0 °F 81% 29.80 in 10.0 mi NNW 12.7 mph - N/A   Overcast
9:35 PM 37.4 °F 28.9 °F 32.0 °F 81% 29.81 in 10.0 mi North 13.8 mph - N/A   Overcast
9:55 PM 37.4 °F 28.5 °F 32.0 °F 81% 29.82 in 10.0 mi North 15.0 mph - N/A   Overcast
10:15 PM 37.4 °F 29.3 °F 32.0 °F 81% 29.83 in 10.0 mi NNW 12.7 mph 19.6 mph N/A   Overcast
10:35 PM 37.4 °F 28.5 °F 32.0 °F 81% 29.83 in 10.0 mi North 15.0 mph - N/A   Overcast
10:55 PM 37.4 °F 29.3 °F 32.0 °F 81% 29.85 in 10.0 mi NNW 12.7 mph - N/A   Overcast
11:15 PM 37.4 °F 28.2 °F 30.2 °F 75% 29.86 in 7.0 mi NW 16.1 mph - N/A   Overcast
11:35 PM 37.4 °F 27.8 °F 30.2 °F 75% 29.85 in 7.0 mi NNW 17.3 mph - N/A   Overcast
11:55 PM 35.6 °F 25.9 °F 30.2 °F 81% 29.84 in 7.0 mi NNW 16.1 mph - N/A   Overcast